Погода Pisa

Погода Pisa : погода сейчас, прогноз погоды и архив. Всё, что Вы хотите узнать о погоде Pisa!

Поиск расширенной информации на нашем сайте:

Другие новости

Новости СМИ2

Главная страница сайта

Новости сайта

03.07.2017

Напоминаем, что на нашем специализированном сайте Метеоцентр.Азия вы можете получить высокодетализированные автоматические прогнозы погоды по пунктам России, СНГ и мира в авиационном формате (включающие направление и скорость ветра, видимость, явления погоды, количество и форму облачности, нижнюю и верхнюю границу облачности).


Погода Pisa - сегодня

Время (UTC), дата Ветер
(°,м/с) 
Видим.   Явления Облачность Т
(°С)
Тd
(°С)
f(%) Тe
(°С)
Pmin
(гПа)
dP
(гПа)
Po
(мм)
O2
(г/м3)
Тmin Tmax R s Состояние
почвы
09 19.06.18 080 (В) 20000 м    1/1 1200 м 
[Cu hum]
+27 +14.1 45 +34  1019.2  0.7  764  277           
12 19.06.18 290 (З) 20000 м    5/3 1200 м средняя 
[Cu hum|Ac trans]
+30 +14.1 38 +37  1018.6  -0.5  763  274           
15 19.06.18 320 (СЗ) 20000 м    4/0 средняя 
[Ac trans]
+30 +14.1 38 +37  1017.7  -0.9  763  274           
18 19.06.18 330 (СЗ) 20000 м    1/1 2000 м средняя 
[As trans]
+28 +14.3 43 +35  1017.2  -0.5  762  276    +31.4       
21 19.06.18 260 (З) 15000 м    ясно 
+24.2 +17 64 +36  1018.6  1.4  763  279           
00 20.06.18 010 (С) 15000 м    ясно 
+19.2 +17.4 89 +34  1018.9  0.3  764  284           
03 20.06.18 140 (ЮВ) 12000 м    ясно 
+16.2 +16 99 +28  1018.8  -0.1  764  287           
06 20.06.18 140 (ЮВ) 25000 м    ясно 
+20.2 +15 72 +28  1019.1  0.3  764  283          сухая 
09 20.06.18 060 (СВ) 20000 м    1/1 2000 м средняя 
[Ac trans]
+28.6 +12.5 37 +33  1019.5  0.5  764  276           
12 20.06.18 110 (В) 20000 м    4/4 1200 м 
[Cu hum]
+30.2 +13.5 36 +36  1019.2  -0.3  764  275           
15 20.06.18 290 (З) 20000 м    3/3 1200 м 
[Cu hum]
+30 +13.7 37 +36  1017.7  -1.5  763  274           
18 20.06.18 280 (З) 20000 м    1/1 2000 м средняя 
[Ac trans]
+28.2 +15.2 45 +37  1017  -0.7  762  275    +32.5       
00 21.06.18 нст () 15000 м    3/0 средняя 
[Ac trans]
+21 +19.1 89 +37  1017.7  763  281           
03 21.06.18 нст () 15000 м    ясно 
+18 +18 100 +33  1017.2  -0.5  762  284           
06 21.06.18 120 (ЮВ) 15000 м    ясно 
+21 +18 83 +35  1017.4  0.1  762  281          сухая 
09 21.06.18 250 (З) 20000 м    1/1 600 м 
[Cu hum]
+26.2 +20.8 72 +46  1016.8  -0.6  762  275           
12 21.06.18 240 (ЮЗ) 20000 м    1/1 750 м 
[Cu med, cong]
+27.4 +20.5 66 +47  1016.6  -0.2  762  274           
15 21.06.18 260 (З) 25000 м    4/1 750 м верхняя 
[Cu med, cong|Cs]
+25 +19.4 71 +42  1015.8  -0.8  761  276           
18 21.06.18 260 (З) 25000 м    1/0 верхняя 
[Ci fib]
+25 +21.7 82 +47  1014.7  -1.1  761  275    +29.5       
00 22.06.18 120 (ЮВ) 10 км    ясно 
+18.6 +18.3 98 +34  1015.1  761  283           
03 22.06.18 110 (В) 8000 м  дымка  3/0 средняя 
[Ac trans]
+18.2 +18.2 100 +34  1013.9  -1.2  760  283           
06 22.06.18 120 (ЮВ) 8000 м  дымка  8/3 1200 м средняя 
[Cu hum|Ac trans]
+19 +19 100 +36  1013.5  -0.5  760  282          влажная 
09 22.06.18 120 (ЮВ) 20000 м    5/4 2000 м средняя 
[Ac cuf]
+24 +20.3 80 +43  1013.5  760  276           
12 22.06.18 040 (СВ) 20000 м    5/5 2000 м средняя 
[Ac cuf]
+27.4 +18.4 58 +42  1012.9  -0.5  759  274           
15 22.06.18 340 (С) 20000 м    ясно 
+28.2 +17.1 51 +40  1011.6  -1.3  758  273           
Время (UTC), дата Ветер
(°,м/с) 
Видим.   Явления Облачность Т
(°С)
Тd
(°С)
f(%) Тe
(°С)
Pmin
(гПа)
dP
(гПа)
Po
(мм)
O2
(г/м3)
Тmin Tmax R s Состояние
почвы

Для получения пояснительной информации подведите курсор к названию столбца.

ПОГОДА Pisa - архив

Всё, что Вы хотите узнать о погоде Pisa - удобно и подробно!

Выберите нужную дату (начиная с 1 января 2015* года) и нажмите кнопку "Найти".
Будут отображены архивные сводки погоды по пункту Pisa, начиная с указанной даты.


Отображать данные в формате CSV (для использования в таблицах Excel)


Внимание! Наш архив погоды предназначен исключительно для личного некоммерческого использования в познавательных целях. Если Вам необходимы официальные справки о состоянии погоды (для производственных, юридических, коммерческих и т.п. целей), обращайтесь в органы Росгидромета.

*Примечание: данная дата относится к архиву по метеостанциям СССР (Россия, СНГ, Балтия).
Архив по метеостанциям Зарубежной Европы и Азии (кроме Китая) хранится 10 дней, по другим регионам земного шара (Китай, Африка, Америка, Австралия, Океания) - 1 день.

Pisa - район местоположения метеостанции


Название, широта, долгота, высота метеостанции:
Pisa (S. Giusto) 43.7°ш. 10.4°д. 6 м над ур. моря [Italy]

Дополнительная информация

В oтличие oт бoльшинства пoгoдных сайтoв мы публикуем пoдрoбную метеoинфoрмацию в детальнoм прoфессиoнальнoм фoрмате.

Характеристики температуры и влажнoсти вoздуха измеряются на высoте 2 м в тени вдали oт зданий и деревьев.
Скoрoсть ветра измеряется на высoте 10 м (на урoвне рoста челoвека скoрoсть ветра ниже в 1.5-2 раза). Если метеoстанция нахoдится в гoрoде или в лесу, тo скoрoсть ветра занижена на 2-4 м/с пo сравнению с oткрытым местoм. Скoрoсть ветра над акватoриями крупных рек и oзёр, а также на вершинах хoлмoв на 2-5 м/с выше, чем в oбычных услoвиях.
Атмoсфернoе давление в разных тoчках местнoсти мoжет значительнo oтличаться oт давления на метеoстанции, в зависимoсти oт услoвий рельефа (при пoдъёме на 10 м давление пoнижается примернo на 1 мм рт.ст.).